Location: Chuathbaluk
(61.5726°N, 159.2454°W)
Time: 22:57:13
(UTC+00:00)

Explorer 7 - Pass Details

Date: 08 December 2021
Orbit: 483 x 674 km, 50.3° (Epoch: 21 January)

Event Time Altitude Azimuth Distance (km) Brightness Sun altitude
Rises 18:24:04 0° 252° (WSW) 2,767 10.0 -7.5°
Reaches altitude 10° 18:27:08 10° 230° (SW) 1,825 9.3 -7.2°
Maximum altitude 18:29:34 15° 194° (SSW) 1,482 9.3 -6.9°
Drops below altitude 10° 18:31:56 10° 158° (SSE) 1,759 10.5 -6.7°
Sets 18:34:47 0° 135° (SE) 2,611 12.7 -6.4°
